Location: Newark
(4.2170°N, 12.9170°E)
Time: 06:30:05
(UTC+00:00)

N. Korean satellite - Pass Details

Date: 14 November 2019
Orbit: 456 x 506 km, 97.2° (Epoch: 06 December)

Event Time Altitude Azimuth Distance (km) Brightness Sun altitude
Rises 03:45:28 0° 47° (NE) 2,571 10.7 -17.3°
Reaches altitude 10° 03:49:13 10° 88° (E) 1,679 10.4 -16.4°
Maximum altitude 03:49:58 11° 100° (E) 1,644 10.6 -16.2°
Drops below altitude 10° 03:50:43 10° 112° (ESE) 1,674 10.7 -16.0°
Sets 03:54:26 0° 153° (SSE) 2,541 10.9 -15.1°
